STARLINK-5012 (53918 NORAD) Tracking and Keplerian Element Data

This shows tracking and keplerian element data for the satellite.

Feedback or suggestion? Click here.




ElementValue
Catalog53918
NameSTARLINK-5012
Epoch Orbit130
Epoch Day324.91667824
Epoch Year2022
RAAN331.143
Inclination53.2147
Eccentricity0.0003971
Argument of Perigee1.0214
Mean Anonmoly15.5643
Mean Motion15.73139513
Decay Rate0.00091174
L11 53918U 22119AJ 22324.91667824 .00091174 00000+0 64848-3 0 9991
L22 53918 53.2147 331.1430 0003971 1.0214 15.5643 15.73139513 1309



Live tracking and technical data element details for STARLINK-5012 (NORAD 53918). STARLINK-5012 can be tracked NOW for your location showing map with azimuth and elevation plus other details from your city location.







IsCatalogInMostPopularTable: catalog: 53918, numindb: 1
Update: records affected: 1



GetName: 53918 STARLINK-5012

Hit Count: updated at: Mon, 28 Nov 2022 22:39:47 GMT